,,Stat6,,Stat2,,Stat8,,Stat9,,Stat10,,Wind1,,Wind1,
time,status,PA1M_AVG,status,PR1M_SUM,status,RH1M_AVG,status,SR1M_AVG,status,TA1M_AVG,status,W1dAve1m,status,W1sAve1m,
2007-02-11, 07:00:01,VALID,917.068,VALID,0,VALID,91.9523,VALID,0,VALID,19.7291,VALID,50,VALID,1.21447,
2007-02-11, 07:01:00,VALID,917.054,VALID,0,VALID,92.26,VALID,0,VALID,19.7196,VALID,49,VALID,1.63572,
2007-02-11, 07:02:00,VALID,917.065,VALID,0,VALID,92.4851,VALID,0.0339617,VALID,19.696,VALID,57,VALID,1.56808,
2007-02-11, 07:03:00,VALID,917.068,VALID,0,VALID,92.7419,VALID,-0.0169808,VALID,19.6998,VALID,50,VALID,1.31159,
2007-02-11, 07:04:00,VALID,917.082,VALID,0,VALID,92.6745,VALID,0,VALID,19.7132,VALID,55,VALID,0.89897,
2007-02-11, 07:05:00,VALID,917.081,VALID,0,VALID,93.0446,VALID,0,VALID,19.7196,VALID,42,VALID,1.36665,
2007-02-11, 07:06:00,VALID,917.104,VALID,0,VALID,93.112,VALID,-0.101885,VALID,19.7305,VALID,34,VALID,1.26451,
2007-02-11, 07:07:00,VALID,917.116,VALID,0,VALID,93.4197,VALID,-0.0849042,VALID,19.7365,VALID,38,VALID,1.93026,
2007-02-11, 07:08:00,VALID,917.132,VALID,0,VALID,93.3701,VALID,-0.101885,VALID,19.7859,VALID,46,VALID,1.77191,
2007-02-11, 07:09:00,VALID,917.152,VALID,0,VALID,93.2531,VALID,-0.101885,VALID,19.805,VALID,55,VALID,1.41871,
2007-02-11, 07:10:00,VALID,917.163,VALID,0,VALID,93.0357,VALID,-0.101885,VALID,19.8018,VALID,49,VALID,0.913867,
2007-02-11, 07:11:00,VALID,917.182,VALID,0,VALID,93.1285,VALID,-0.101885,VALID,19.7559,VALID,61,VALID,0.813244,
2007-02-11, 07:12:00,VALID,917.173,VALID,0,VALID,93.5647,VALID,-0.101885,VALID,19.7499,VALID,59,VALID,1.381,
2007-02-11, 07:13:00,VALID,917.172,VALID,0,VALID,93.6346,VALID,-0.135847,VALID,19.7372,VALID,47,VALID,1.2984,
2007-02-11, 07:14:00,VALID,917.17,VALID,0,VALID,93.7618,VALID,-0.101885,VALID,19.7243,VALID,27,VALID,1.1694,
2007-02-11, 07:15:00,VALID,917.18,VALID,0,VALID,93.9932,VALID,-0.101885,VALID,19.7147,VALID,2,VALID,1.34338,
2007-02-11, 07:16:00,VALID,917.173,VALID,0,VALID,93.9411,VALID,-0.101885,VALID,19.7077,VALID,360,VALID,1.44341,
2007-02-11, 07:17:00,VALID,917.178,VALID,0,VALID,94.0619,VALID,-0.101885,VALID,19.7082,VALID,19,VALID,1.64732,
2007-02-11, 07:18:00,VALID,917.16,VALID,0,VALID,94.0898,VALID,-0.0849042,VALID,19.7114,VALID,31,VALID,1.35883,
2007-02-11, 07:19:00,VALID,917.148,VALID,0,VALID,94.0682,VALID,-0.118866,VALID,19.7142,VALID,27,VALID,0.945313,
2007-02-11, 07:20:00,VALID,917.148,VALID,0,VALID,94.0631,VALID,-0.101885,VALID,19.7276,VALID,39,VALID,0.989648,
2007-02-11, 07:21:00,VALID,917.164,VALID,0,VALID,94.0441,VALID,-0.0169808,VALID,19.7261,VALID,44,VALID,0.9462,
2007-02-11, 07:22:00,VALID,917.202,VALID,0,VALID,93.9538,VALID,-0.0169808,VALID,19.7395,VALID,40,VALID,0.693359,
2007-02-11, 07:23:00,VALID,917.241,VALID,0,VALID,94.0644,VALID,0,VALID,19.7228,VALID,36,VALID,1.12779,
2007-02-11, 07:24:00,VALID,917.265,VALID,0,VALID,94.1165,VALID,0,VALID,19.7318,VALID,47,VALID,0.955078,
2007-02-11, 07:25:00,VALID,917.29,VALID,0,VALID,94.0186,VALID,0,VALID,19.7651,VALID,44,VALID,0.826257,
2007-02-11, 07:26:00,VALID,917.299,VALID,0,VALID,93.9563,VALID,0,VALID,19.7807,VALID,38,VALID,1.09935,
2007-02-11, 07:27:00,VALID,917.284,VALID,0,VALID,93.9016,VALID,-0.0169808,VALID,19.778,VALID,37,VALID,1.08789,
2007-02-11, 07:28:00,VALID,917.275,VALID,0,VALID,93.8571,VALID,-0.0169808,VALID,19.7613,VALID,37,VALID,0.841992,
2007-02-11, 07:29:00,VALID,917.273,VALID,0,VALID,93.9131,VALID,-0.0169808,VALID,19.7648,VALID,40,VALID,1.01235,
2007-02-11, 07:30:00,VALID,917.243,VALID,0,VALID,93.8838,VALID,0,VALID,19.7546,VALID,33,VALID,0.756541,
2007-02-11, 07:31:00,VALID,917.235,VALID,0,VALID,93.8711,VALID,0,VALID,19.7484,VALID,30,VALID,0.59517,
2007-02-11, 07:32:00,VALID,917.206,VALID,0,VALID,93.9309,VALID,0,VALID,19.7258,VALID,30,VALID,0.725109,
2007-02-11, 07:33:00,VALID,917.177,VALID,0,VALID,93.9449,VALID,0.0169808,VALID,19.7127,VALID,26,VALID,0.724201,
2007-02-11, 07:34:00,VALID,917.169,VALID,0,VALID,94.0339,VALID,0,VALID,19.6839,VALID,32,VALID,0.889583,
2007-02-11, 08:49:00,VALID,920.325,VALID,0,VALID,88.9443,VALID,163.194,VALID,21.0048,VALID,119,VALID,0.303906,
2007-02-11, 08:50:00,VALID,920.325,VALID,0,VALID,88.9169,VALID,166.005,VALID,21.034,VALID,119,VALID,0.156795,
2007-02-11, 08:51:00,VALID,920.333,VALID,0,VALID,88.9017,VALID,164.307,VALID,21.0687,VALID,123,VALID,0.442578,
2007-02-11, 08:52:00,VALID,920.343,VALID,0,VALID,89.2514,VALID,159.297,VALID,21.1106,VALID,135,VALID,0.467685,
2007-02-11, 08:53:00,VALID,920.364,VALID,0,VALID,88.95,VALID,150.824,VALID,21.1238,VALID,135,VALID,0.370094,
2007-02-11, 08:54:00,VALID,920.372,VALID,0,VALID,88.9551,VALID,145.237,VALID,21.1529,VALID,135,VALID,0.260099,
2007-02-11, 08:55:00,VALID,920.389,VALID,0,VALID,88.4554,VALID,143.862,VALID,21.1728,VALID,135,VALID,0.390053,
2007-02-11, 08:56:00,VALID,920.383,VALID,0,VALID,88.505,VALID,148.294,VALID,21.2112,VALID,135,VALID,0.204799,
2007-02-11, 08:57:00,VALID,920.368,VALID,0,VALID,88.2773,VALID,156.258,VALID,21.2271,VALID,126,VALID,0.748698,
2007-02-11, 08:58:00,VALID,920.371,VALID,0,VALID,87.5894,VALID,163.339,VALID,21.2303,VALID,110,VALID,0.589666,
2007-02-11, 08:59:00,VALID,920.368,VALID,0,VALID,88.0383,VALID,171.184,VALID,21.2946,VALID,98,VALID,0.575462,
2007-02-11, 09:00:00,VALID,920.356,VALID,0,VALID,86.993,VALID,180.812,VALID,21.3786,VALID,30,VALID,0.612043,
2007-02-11, 09:01:00,VALID,920.357,VALID,0,VALID,86.96,VALID,191.459,VALID,21.4238,VALID,20,VALID,0.630952,
2007-02-11, 09:02:00,VALID,920.349,VALID,0,VALID,87.3898,VALID,208.287,VALID,21.4757,VALID,8,VALID,0.34266,
2007-02-11, 09:03:00,VALID,920.329,VALID,0,VALID,87.7661,VALID,237.409,VALID,21.5669,VALID,13,VALID,0.185785,
2007-02-11, 09:04:00,VALID,920.315,VALID,0,VALID,87.8895,VALID,239.005,VALID,21.6678,VALID,72,VALID,0.576367,
2007-02-11, 09:05:00,VALID,920.304,VALID,0,VALID,87.9671,VALID,245.118,VALID,21.7899,VALID,108,VALID,0.384115,
2007-02-11, 09:06:00,VALID,920.302,VALID,0,VALID,87.0591,VALID,249.024,VALID,21.9258,VALID,66,VALID,0.665104,
2007-02-11, 09:07:00,VALID,920.305,VALID,0,VALID,85.8142,VALID,253.371,VALID,21.993,VALID,49,VALID,0.678571,
2007-02-11, 09:08:00,VALID,920.312,VALID,0,VALID,84.1713,VALID,259.077,VALID,22,VALID,30,VALID,1.10938,
2007-02-11, 09:09:00,VALID,920.313,VALID,0,VALID,83.5686,VALID,271.405,VALID,21.9998,VALID,26,VALID,0.350675,
2007-02-11, 09:10:00,VALID,920.31,VALID,0,VALID,82.6518,VALID,284.938,VALID,22.0057,VALID,265,VALID,0.73418,
2007-02-11, 09:11:00,VALID,920.299,VALID,0,VALID,82.4203,VALID,301.766,VALID,22.0996,VALID,251,VALID,0.592842,
2007-02-11, 09:12:00,VALID,920.298,VALID,0,VALID,82.0961,VALID,328.019,VALID,22.2607,VALID,175,VALID,0.40346,
2007-02-11, 09:13:00,VALID,920.302,VALID,0,VALID,82.194,VALID,336.628,VALID,22.3444,VALID,103,VALID,0.852412,
2007-02-11, 09:14:00,VALID,920.288,VALID,0,VALID,81.7604,VALID,339.735,VALID,22.3385,VALID,133,VALID,1.36828,
2007-02-11, 09:15:00,VALID,920.285,VALID,0,VALID,81.6726,VALID,332.23,VALID,22.254,VALID,115,VALID,1.17548,
2007-02-11, 09:16:00,VALID,920.279,VALID,0,VALID,81.5976,VALID,295.331,VALID,22.2731,VALID,105,VALID,0.862305,
2007-02-11, 09:17:00,VALID,920.263,VALID,0,VALID,81.8049,VALID,311.632,VALID,22.3438,VALID,115,VALID,0.751215,
2007-02-11, 09:18:00,VALID,920.288,VALID,0,VALID,82.1164,VALID,299.151,VALID,22.4084,VALID,66,VALID,1.42552,
2007-02-11, 09:19:00,VALID,920.288,VALID,0,VALID,81.6027,VALID,288.657,VALID,22.4817,VALID,56,VALID,0.731286,
2007-02-11, 09:20:00,VALID,920.313,VALID,0,VALID,81.1462,VALID,280.659,VALID,22.5323,VALID,70,VALID,1.34449,
2007-02-11, 09:21:00,VALID,920.33,VALID,0,VALID,80.9135,VALID,273.001,VALID,22.5904,VALID,72,VALID,1.08798,
2007-02-11, 09:22:00,VALID,920.352,VALID,0,VALID,79.6152,VALID,264.544,VALID,22.6353,VALID,66,VALID,0.898251,
2007-02-11, 09:23:00,VALID,920.376,VALID,0,VALID,77.6721,VALID,258.652,VALID,22.6385,VALID,73,VALID,1.29799,
2007-02-11, 09:24:00,VALID,920.397,VALID,0,VALID,77.8565,VALID,262.761,VALID,22.6259,VALID,56,VALID,1.00484,
2007-02-11, 09:25:00,VALID,920.418,VALID,0,VALID,78.547,VALID,271.303,VALID,22.6286,VALID,81,VALID,0.802591,
2007-02-11, 09:26:00,VALID,920.429,VALID,0,VALID,79.0023,VALID,276.754,VALID,22.642,VALID,60,VALID,1.09738,
2007-02-11, 09:27:00,VALID,920.446,VALID,0,VALID,79.1828,VALID,281.661,VALID,22.6667,VALID,53,VALID,1.2123,
2007-02-11, 09:28:00,VALID,920.438,VALID,0,VALID,79.7805,VALID,298.472,VALID,22.6512,VALID,46,VALID,1.66832,
2007-02-11, 09:29:00,VALID,920.442,VALID,0,VALID,79.9674,VALID,326.507,VALID,22.625,VALID,29,VALID,1.19457,
2007-02-11, 09:30:00,VALID,920.42,VALID,0,VALID,80.1467,VALID,367.754,VALID,22.5725,VALID,43,VALID,1.46818,
2007-02-11, 09:31:00,VALID,920.395,VALID,0,VALID,78.9781,VALID,380.082,VALID,22.5373,VALID,45,VALID,1.03924,
2007-02-11, 09:32:00,VALID,920.357,VALID,0,VALID,78.6055,VALID,473.85,VALID,22.6183,VALID,70,VALID,1.01143,
2007-02-11, 09:33:00,VALID,920.343,VALID,0,VALID,77.5501,VALID,367.873,VALID,22.7281,VALID,89,VALID,1.04506,
2007-02-11, 09:34:00,VALID,920.354,VALID,0,VALID,77.7014,VALID,394.736,VALID,22.8153,VALID,31,VALID,0.560404,
2007-02-11, 09:35:00,VALID,920.344,VALID,0,VALID,77.9303,VALID,540.721,VALID,22.9891,VALID,46,VALID,1.00267,
2007-02-11, 09:36:00,VALID,920.362,VALID,0,VALID,76.3738,VALID,390.152,VALID,23.0951,VALID,25,VALID,1.80233,
2007-02-11, 09:37:00,VALID,920.369,VALID,0,VALID,76.618,VALID,483.02,VALID,23.054,VALID,15,VALID,1.9742,
2007-02-11, 09:38:00,VALID,920.391,VALID,0,VALID,76.7312,VALID,618.663,VALID,22.9662,VALID,35,VALID,1.5878,
2007-02-11, 09:39:00,VALID,920.382,VALID,0,VALID,75.7686,VALID,656.53,VALID,22.9885,VALID,26,VALID,1.16458,
2007-02-11, 09:40:00,VALID,920.396,VALID,0,VALID,76.3306,VALID,592.24,VALID,23.069,VALID,34,VALID,1.64602,
2007-02-11, 09:41:00,VALID,920.372,VALID,0,VALID,75.8398,VALID,462.88,VALID,23.098,VALID,21,VALID,1.74375,
2007-02-11, 09:42:00,VALID,920.374,VALID,0,VALID,76.2225,VALID,361.352,VALID,23.0361,VALID,24,VALID,1.19036,
2007-02-11, 09:43:00,VALID,920.388,VALID,0,VALID,76.9766,VALID,469.503,VALID,23.059,VALID,36,VALID,1.13408,
2007-02-11, 09:44:00,VALID,920.379,VALID,0,VALID,76.0585,VALID,581.424,VALID,23.1561,VALID,29,VALID,1.5989,
2007-02-11, 09:45:00,VALID,920.374,VALID,0,VALID,76.3408,VALID,564.341,VALID,23.2172,VALID,43,VALID,1.54869,
2007-02-11, 09:46:00,VALID,920.379,VALID,0,VALID,75.6579,VALID,419.427,VALID,23.3012,VALID,45,VALID,0.960175,
2007-02-11, 09:47:00,VALID,920.374,VALID,0,VALID,75.9491,VALID,644.881,VALID,23.3881,VALID,355,VALID,1.74104,
2007-02-11, 09:48:00,VALID,920.375,VALID,0,VALID,75.8258,VALID,699.169,VALID,23.4562,VALID,15,VALID,1.38974,
2007-02-11, 09:49:00,VALID,920.389,VALID,0,VALID,75.4418,VALID,681.729,VALID,23.5657,VALID,20,VALID,1.07622,
2007-02-11, 09:50:00,VALID,920.381,VALID,0,VALID,75.4926,VALID,695.314,VALID,23.6978,VALID,356,VALID,1.01674,
2007-02-11, 09:51:00,VALID,920.376,VALID,0,VALID,75.3667,VALID,564.205,VALID,23.9004,VALID,331,VALID,0.934451,
2007-02-11, 09:52:00,VALID,920.38,VALID,0,VALID,74.5885,VALID,479.641,VALID,24.0916,VALID,35,VALID,0.75,
2007-02-11, 09:53:00,VALID,920.378,VALID,0,VALID,72.4077,VALID,511.497,VALID,24.1327,VALID,4,VALID,1.94066,
2007-02-11, 09:54:00,VALID,920.373,VALID,0,VALID,73.9146,VALID,736.034,VALID,23.9621,VALID,21,VALID,1.58516,
2007-02-11, 09:55:00,VALID,920.346,VALID,0,VALID,73.8968,VALID,675.158,VALID,23.9492,VALID,28,VALID,1.34048,
2007-02-11, 09:56:00,VALID,920.331,VALID,0,VALID,73.8065,VALID,727.17,VALID,24.0296,VALID,13,VALID,1.89577,
2007-02-11, 09:57:00,VALID,920.303,VALID,0,VALID,73.7391,VALID,675.973,VALID,24.0681,VALID,28,VALID,1.48419,
2007-02-11, 09:58:00,VALID,920.274,VALID,0,VALID,73.2737,VALID,608.508,VALID,24.0933,VALID,35,VALID,1.85665,
2007-02-11, 09:59:00,VALID,920.243,VALID,0,VALID,72.5425,VALID,669.079,VALID,24.0742,VALID,32,VALID,1.87426,
2007-02-11, 10:00:00,VALID,920.229,VALID,0,VALID,73.0906,VALID,702.123,VALID,24.0281,VALID,29,VALID,1.85099,
2007-02-11, 10:01:00,VALID,920.181,VALID,0,VALID,73.4771,VALID,699.067,VALID,23.9477,VALID,314,VALID,2.47493,
2007-02-11, 10:02:00,VALID,920.184,VALID,0,VALID,74.6406,VALID,698.167,VALID,23.8214,VALID,309,VALID,2.39639,
2007-02-11, 10:03:00,VALID,920.221,VALID,0,VALID,76.1272,VALID,704.688,VALID,23.9021,VALID,323,VALID,1.34876,
2007-02-11, 10:04:00,VALID,920.245,VALID,0,VALID,72.9799,VALID,714.757,VALID,24.0991,VALID,9,VALID,1.58203,
2007-02-11, 10:05:00,VALID,920.278,VALID,0,VALID,72.7828,VALID,717.202,VALID,24.1899,VALID,9,VALID,2.06001,
2007-02-11, 10:06:00,VALID,920.288,VALID,0,VALID,71.0318,VALID,708.542,VALID,24.0724,VALID,35,VALID,2.57715,
2007-02-11, 10:07:00,VALID,920.305,VALID,0,VALID,71.0242,VALID,711.616,VALID,23.9955,VALID,29,VALID,2.02039,
2007-02-11, 10:08:00,VALID,920.302,VALID,0,VALID,72.5819,VALID,717.253,VALID,24.0046,VALID,26,VALID,1.67844,
2007-02-11, 10:09:00,VALID,920.307,VALID,0,VALID,71.9843,VALID,727.391,VALID,24.1376,VALID,54,VALID,1.9375,
2007-02-11, 10:10:00,VALID,920.294,VALID,0,VALID,71.1946,VALID,732.74,VALID,24.1631,VALID,54,VALID,2.12591,
2007-02-11, 10:11:00,VALID,920.286,VALID,0,VALID,71.6536,VALID,741.791,VALID,24.1916,VALID,15,VALID,1.27859,
2007-02-11, 10:12:00,VALID,920.282,VALID,0,VALID,71.8902,VALID,746.291,VALID,24.3334,VALID,18,VALID,1.38945,
2007-02-11, 10:13:00,VALID,920.291,VALID,0,VALID,70.6351,VALID,740.517,VALID,24.4788,VALID,39,VALID,1.97266,
2007-02-11, 10:14:00,VALID,920.276,VALID,0,VALID,69.5415,VALID,728.546,VALID,24.4668,VALID,5,VALID,1.75763,
2007-02-11, 10:15:00,VALID,920.286,VALID,0,VALID,70.4113,VALID,732.672,VALID,24.4171,VALID,6,VALID,2.4133,
2007-02-11, 10:16:00,VALID,920.302,VALID,0,VALID,71.159,VALID,740.534,VALID,24.2946,VALID,18,VALID,1.89648,
2007-02-11, 10:17:00,VALID,920.293,VALID,0,VALID,69.0837,VALID,765.19,VALID,24.2287,VALID,33,VALID,2.75038,
2007-02-11, 10:18:00,VALID,920.303,VALID,0,VALID,70.5779,VALID,782.952,VALID,24.1508,VALID,42,VALID,2.08535,
2007-02-11, 10:19:00,VALID,920.295,VALID,0,VALID,70.939,VALID,778.996,VALID,24.189,VALID,326,VALID,2.10007,
2007-02-11, 10:20:00,VALID,920.306,VALID,0,VALID,72.1089,VALID,723.842,VALID,24.2442,VALID,340,VALID,1.96039,
2007-02-11, 10:21:00,VALID,920.307,VALID,0,VALID,70.8131,VALID,483.24,VALID,24.376,VALID,343,VALID,1.63611,
2007-02-11, 17:02:00,VALID,920.323,VALID,0,VALID,70.452,VALID,628.365,VALID,24.6453,VALID,16,VALID,1.21275,
2007-02-11, 17:03:00,VALID,920.291,VALID,0,VALID,69.5072,VALID,741.757,VALID,24.7701,VALID,38,VALID,1.2221,
2007-02-11, 17:04:00,VALID,920.259,VALID,0,VALID,69.0062,VALID,781.628,VALID,24.9248,VALID,7,VALID,0.947599,
2007-02-11, 17:05:00,VALID,920.254,VALID,0,VALID,69.0303,VALID,721.091,VALID,25.161,VALID,353,VALID,1.35859,
2007-02-11, 17:06:00,VALID,920.221,VALID,0,VALID,68.3233,VALID,781.441,VALID,25.2708,VALID,31,VALID,0.515625,
2007-02-11, 17:07:00,VALID,920.217,VALID,0,VALID,67.2183,VALID,758.907,VALID,25.4611,VALID,3,VALID,1.01897,
2007-02-11, 17:08:00,VALID,920.232,VALID,0,VALID,65.419,VALID,788.471,VALID,25.477,VALID,360,VALID,2.01086,
2007-02-11, 17:09:00,VALID,920.232,VALID,0,VALID,65.9111,VALID,790.492,VALID,25.1946,VALID,7,VALID,1.64663,
2007-02-11, 17:10:00,VALID,920.22,VALID,0,VALID,65.2753,VALID,794.041,VALID,25.0686,VALID,357,VALID,1.83496,
2007-02-11, 17:11:00,VALID,920.196,VALID,0,VALID,67.2628,VALID,789.711,VALID,24.9368,VALID,343,VALID,1.49371,
2007-02-11, 17:12:00,VALID,920.178,VALID,0,VALID,66.6613,VALID,816.15,VALID,24.9013,VALID,28,VALID,2.01617,
2007-02-11, 17:13:00,VALID,920.153,VALID,0,VALID,65.8958,VALID,822.874,VALID,24.8974,VALID,47,VALID,0.588356,
2007-02-11, 17:14:00,VALID,920.117,VALID,0,VALID,65.171,VALID,836.544,VALID,25.0079,VALID,334,VALID,0.425872,
2007-02-11, 17:15:01,VALID,920.095,VALID,0,VALID,64.7781,VALID,844.491,VALID,25.2454,VALID,278,VALID,0.367527,
2007-02-11, 17:16:00,VALID,920.068,VALID,0,VALID,63.5319,VALID,856.768,VALID,25.5788,VALID,187,VALID,0.402344,
2007-02-11, 17:17:00,VALID,920.049,VALID,0,VALID,63.3056,VALID,866.396,VALID,25.7468,VALID,128,VALID,0.449491,
2007-02-11, 17:18:00,VALID,920.01,VALID,0,VALID,63.8841,VALID,888.454,VALID,25.9403,VALID,124,VALID,0.613948,
2007-02-11, 17:19:00,VALID,919.993,VALID,0,VALID,62.8414,VALID,864.07,VALID,26.1342,VALID,66,VALID,1.24655,
2007-02-11, 17:20:00,VALID,919.942,VALID,0,VALID,62.7435,VALID,524.742,VALID,26.331,VALID,83,VALID,1.33631,
2007-02-11, 17:21:00,VALID,919.915,VALID,0,VALID,62.3633,VALID,497.657,VALID,26.215,VALID,53,VALID,2.20592,
2007-02-11, 17:22:00,VALID,919.917,VALID,0,VALID,62.3163,VALID,299.253,VALID,25.9623,VALID,86,VALID,1.16806,
2007-02-11, 17:23:00,VALID,919.902,VALID,0,VALID,62.039,VALID,282.799,VALID,25.562,VALID,115,VALID,0.650981,
2007-02-11, 17:24:00,VALID,919.884,VALID,0,VALID,63.8091,VALID,290.491,VALID,25.3058,VALID,206,VALID,0.345385,
2007-02-11, 17:25:00,VALID,919.872,VALID,0,VALID,63.7722,VALID,304.178,VALID,25.3933,VALID,171,VALID,0.350446,
2007-02-11, 17:26:00,VALID,919.857,VALID,0,VALID,63.7532,VALID,417.117,VALID,25.4896,VALID,147,VALID,0.244234,
2007-02-11, 17:27:00,VALID,919.833,VALID,0,VALID,63.3119,VALID,359.043,VALID,25.6382,VALID,237,VALID,0.160247,
2007-02-11, 17:28:00,VALID,919.837,VALID,0,VALID,63.1542,VALID,360.995,VALID,25.6967,VALID,233,VALID,0.283918,
2007-02-11, 17:29:00,VALID,919.841,VALID,0,VALID,63.2394,VALID,708.389,VALID,25.7972,VALID,341,VALID,0.759673,
2007-02-11, 17:30:00,VALID,919.835,VALID,0,VALID,62.891,VALID,425.115,VALID,25.7387,VALID,102,VALID,0.985243,
2007-02-11, 17:31:00,VALID,919.817,VALID,0,VALID,64.8696,VALID,364.918,VALID,25.3636,VALID,94,VALID,1.69497,
2007-02-11, 17:32:00,VALID,919.828,VALID,0,VALID,67.1471,VALID,362.065,VALID,25.2706,VALID,28,VALID,2.14539,
2007-02-11, 17:33:00,VALID,919.84,VALID,0,VALID,67.9584,VALID,599.44,VALID,25.1607,VALID,57,VALID,1.07592,
2007-02-11, 17:34:00,VALID,919.826,VALID,0,VALID,67.2297,VALID,686.807,VALID,25.1217,VALID,135,VALID,1.27139,
2007-02-11, 17:35:00,VALID,919.804,VALID,0,VALID,67.292,VALID,360.197,VALID,24.7247,VALID,144,VALID,1.86861,
2007-02-11, 17:36:00,VALID,919.826,VALID,0,VALID,68.4301,VALID,336.883,VALID,24.4501,VALID,135,VALID,1.40941,
2007-02-11, 17:37:00,VALID,919.82,VALID,0,VALID,69.6852,VALID,423.502,VALID,24.4079,VALID,115,VALID,0.877486,
2007-02-11, 17:38:00,VALID,919.807,VALID,0,VALID,69.2058,VALID,378.146,VALID,24.6216,VALID,109,VALID,0.714026,
2007-02-11, 17:39:00,VALID,919.781,VALID,0,VALID,68.9159,VALID,361.59,VALID,24.8642,VALID,133,VALID,0.453316,
2007-02-11, 17:40:00,VALID,919.782,VALID,0,VALID,68.4556,VALID,400.663,VALID,24.9995,VALID,133,VALID,0.330729,
2007-02-11, 17:41:00,VALID,919.792,VALID,0,VALID,68.3958,VALID,426.558,VALID,25.1213,VALID,141,VALID,0.233445,
2007-02-11, 17:42:00,VALID,919.783,VALID,0,VALID,68.3335,VALID,331.279,VALID,25.2615,VALID,167,VALID,0.343932,
2007-02-11, 17:43:00,VALID,919.779,VALID,0,VALID,67.5184,VALID,311.53,VALID,25.3749,VALID,143,VALID,0.344336,
2007-02-11, 17:44:00,VALID,919.764,VALID,0,VALID,66.8775,VALID,309.696,VALID,25.3875,VALID,200,VALID,0.473704,
2007-02-11, 17:45:00,VALID,919.751,VALID,0,VALID,65.9276,VALID,329.734,VALID,25.5329,VALID,237,VALID,0.429155,
2007-02-11, 17:46:00,VALID,919.744,VALID,0,VALID,65.7865,VALID,322.857,VALID,25.8337,VALID,231,VALID,0.456745,
2007-02-11, 17:47:00,VALID,919.723,VALID,0,VALID,64.3546,VALID,322.228,VALID,26.0918,VALID,149,VALID,0.472124,
2007-02-11, 17:48:00,VALID,919.702,VALID,0,VALID,63.598,VALID,335.949,VALID,26.406,VALID,140,VALID,0.208629,
2007-02-11, 17:49:00,VALID,919.684,VALID,0,VALID,63.1809,VALID,363.203,VALID,26.7188,VALID,163,VALID,0.663318,
2007-02-11, 17:50:00,VALID,919.671,VALID,0,VALID,62.9775,VALID,348.294,VALID,26.6812,VALID,175,VALID,0.597222,
2007-02-11, 17:51:00,VALID,919.65,VALID,0,VALID,61.4516,VALID,350.009,VALID,26.7016,VALID,164,VALID,0.679324,
2007-02-11, 17:52:00,VALID,919.651,VALID,0,VALID,62.1535,VALID,327.509,VALID,26.5694,VALID,96,VALID,0.422247,
2007-02-11, 17:53:00,VALID,919.645,VALID,0,VALID,63.598,VALID,310.681,VALID,26.3684,VALID,141,VALID,0.598958,
2007-02-11, 17:54:00,VALID,919.616,VALID,0,VALID,64.1003,VALID,317.779,VALID,26.1102,VALID,159,VALID,0.529251,
2007-02-11, 17:55:00,VALID,919.61,VALID,0,VALID,63.0411,VALID,337.511,VALID,25.7387,VALID,150,VALID,0.898438,
2007-02-11, 17:56:00,VALID,919.604,VALID,0,VALID,65.1151,VALID,371.524,VALID,25.4576,VALID,158,VALID,0.591442,
2007-02-11, 17:57:00,VALID,919.605,VALID,0,VALID,66.2722,VALID,396.791,VALID,25.4218,VALID,185,VALID,0.678013,
2007-02-11, 17:58:00,VALID,919.602,VALID,0,VALID,66.0649,VALID,436.017,VALID,25.4605,VALID,192,VALID,0.782315,
2007-02-11, 17:59:00,VALID,919.611,VALID,0,VALID,65.2473,VALID,607.897,VALID,25.7031,VALID,162,VALID,0.668255,
2007-02-11, 18:00:00,VALID,919.597,VALID,0,VALID,62.446,VALID,683.19,VALID,25.9581,VALID,242,VALID,0.614099,
2007-02-11, 18:01:00,VALID,919.589,VALID,0,VALID,62.8948,VALID,856.683,VALID,26.2136,VALID,356,VALID,0.826672,
2007-02-11, 18:02:00,VALID,919.579,VALID,0,VALID,62.2222,VALID,866.43,VALID,26.507,VALID,93,VALID,0.58327,
2007-02-11, 18:03:00,VALID,919.563,VALID,0,VALID,62.1115,VALID,883.92,VALID,26.3717,VALID,151,VALID,0.761719,
2007-02-11, 18:04:00,VALID,919.564,VALID,0,VALID,64.2618,VALID,896.995,VALID,26.4773,VALID,144,VALID,0.71439,
2007-02-11, 18:05:00,VALID,919.549,VALID,0,VALID,62.582,VALID,600.901,VALID,26.7032,VALID,136,VALID,0.485328,
2007-02-11, 18:06:00,VALID,919.562,VALID,0,VALID,62.5388,VALID,845.951,VALID,26.8744,VALID,169,VALID,0.891016,
2007-02-11, 18:07:00,VALID,919.573,VALID,0,VALID,61.6576,VALID,768.196,VALID,26.7293,VALID,149,VALID,0.641959,
2007-02-11, 18:08:00,VALID,919.574,VALID,0,VALID,61.6423,VALID,1002.68,VALID,26.7074,VALID,112,VALID,0.742551,
2007-02-11, 18:09:00,VALID,919.564,VALID,0,VALID,62.535,VALID,947.445,VALID,27.0199,VALID,128,VALID,0.769159,
2007-02-11, 18:10:00,VALID,919.561,VALID,0,VALID,61.1209,VALID,743.37,VALID,27.2648,VALID,139,VALID,0.795573,
2007-02-11, 18:11:00,VALID,919.536,VALID,0,VALID,60.3122,VALID,651.436,VALID,27.1022,VALID,135,VALID,0.932065,
2007-02-11, 18:12:00,VALID,919.512,VALID,0,VALID,61.6105,VALID,764.103,VALID,27.1122,VALID,194,VALID,0.649581,
2007-02-11, 18:13:00,VALID,919.471,VALID,0,VALID,61.9093,VALID,811.14,VALID,27.1474,VALID,153,VALID,0.848586,
2007-02-11, 18:14:00,VALID,919.44,VALID,0,VALID,61.8127,VALID,890.22,VALID,27.0382,VALID,145,VALID,1.06268,
2007-02-11, 18:15:00,VALID,919.401,VALID,0,VALID,61.9856,VALID,756.343,VALID,26.802,VALID,115,VALID,0.903409,
2007-02-11, 18:16:00,VALID,919.372,VALID,0,VALID,62.3239,VALID,975.6,VALID,27.0224,VALID,217,VALID,0.717035,
2007-02-11, 18:17:00,VALID,919.361,VALID,0,VALID,61.4923,VALID,905.842,VALID,27.3776,VALID,334,VALID,0.881359,
2007-02-11, 18:18:00,VALID,919.318,VALID,0,VALID,60.7776,VALID,887.605,VALID,27.5582,VALID,262,VALID,1.46532,
2007-02-11, 18:19:00,VALID,919.327,VALID,0,VALID,60.1901,VALID,1003.41,VALID,27.7522,VALID,250,VALID,0.852344,
2007-02-11, 18:20:00,VALID,919.299,VALID,0,VALID,59.8633,VALID,996.452,VALID,27.9458,VALID,332,VALID,0.737464,
2007-02-11, 18:21:00,VALID,919.272,VALID,0,VALID,57.8936,VALID,1031.93,VALID,28.2012,VALID,329,VALID,0.933036,
2007-02-11, 18:22:00,VALID,919.262,VALID,0,VALID,56.3168,VALID,1028.55,VALID,28.2658,VALID,346,VALID,1.82793,
2007-02-11, 18:23:00,VALID,919.218,VALID,0,VALID,55.4025,VALID,1024.5,VALID,27.7773,VALID,129,VALID,1.36592,
2007-02-11, 18:24:00,VALID,919.184,VALID,0,VALID,57.4333,VALID,1035.24,VALID,27.308,VALID,66,VALID,2.20859,
2007-02-11, 18:25:00,VALID,919.215,VALID,0,VALID,58.3832,VALID,1063.8,VALID,27.1109,VALID,110,VALID,1.63058,
2007-02-11, 18:26:00,VALID,919.234,VALID,0,VALID,58.6706,VALID,1083.58,VALID,27.3022,VALID,93,VALID,1.55488,
2007-02-11, 18:27:00,VALID,919.231,VALID,0,VALID,58.518,VALID,1064.49,VALID,27.2236,VALID,117,VALID,2.18235,
2007-02-11, 18:28:00,VALID,919.244,VALID,0,VALID,56.7008,VALID,1059.42,VALID,26.9819,VALID,126,VALID,1.39342,
2007-02-11, 18:29:00,VALID,919.251,VALID,0,VALID,57.165,VALID,1073.21,VALID,27.0068,VALID,113,VALID,1.36882,